User: anonymous   Login
Location: La Brionne
(46.1728°N, 1.7849°E)
Time: 06:09:06
(UTC+00:00)
Language:

FENGYUN 1C DEB - Orbit

View from above orbital plane
View from above orbital plane
View from above satellite
View from above satellite

Ground track
Ground track

The orbit data is extracted from the following two-line orbital elements,

1 30336U 99025AAX 24197.62090935  .00001378  00000-0  68788-3 0  9996
2 30336  98.6478 226.6504 0045160  53.1864  72.2307 14.17925899902981
Epoch (UTC): 15 July 2024 14:54:06
Eccentricity: 0.0045160
inclination: 98.6478°
perigee height: 800 km
apogee height: 865 km
right ascension of ascending node: 226.6504°
argument of perigee: 53.1864°
revolutions per day: 14.17925899
mean anomaly at epoch: 72.2307°
orbit number at epoch: 90298

The dashed part of the orbit path shows where the satellite is in the earth's shadow,  

DLR